Back to catalog

STARLINK-5766

AliveCommunicationsVLEO
NORAD 56025·PAYLOAD·🇺🇸 United States

Launched Mar 24, 2023 from Cape Canaveral Space Force Station

Loading…

Next Passes (next 24 hours)

TLE

FreshSource: CelesTrak SupGP

Epoch: Sep 14, 2026, 13:41 UTC

1 56025C 23042AR  26257.57062500 -.00022698  00000+0 -82231-3 0  2570
2 56025  43.0005  58.9017 0001768 271.3501 242.9288 15.27582434    10

Track STARLINK-5766 in real time with AllMySat

Download on the App Store